Data for 07/20/2017

Time Sea-Level Adjusted Pressure Absolute Pressure Temperature Relative Humidity Dew Point   
(mb) (inHg) (mb) (inHg) (C) (F) (%) (C) (F)
00:05 1018 30.06 847 25.01 24.3 75.8 23 2.3 36.1
00:10 1018 30.06 847 25.01 24.1 75.4 24 2.4 36.3
00:15 1018 30.06 847 25.01 24 75.3 24 2.4 36.3
00:20 1018 30.06 847 25.01 23.9 74.9 24 2.4 36.4
00:25 1018 30.06 847 25.01 23.7 74.7 24 2.5 36.5
00:30 1018 30.06 847 25.01 23.5 74.4 25 2.3 36.2
00:35 1018 30.06 847 25.01 23.4 74.1 25 2.4 36.2
00:40 1018 30.06 847 25.01 23.1 73.6 25 2.4 36.4
00:45 1018 30.06 847 25.01 22.9 73.1 26 2.5 36.4
00:50 1018 30.06 847 25.01 22.7 72.9 26 2.4 36.4
00:55 1018 30.06 847 25.01 22.7 72.9 26 2.3 36.2
01:00 1018 30.06 847 25.01 23.1 73.6 25 2.5 36.5
01:05 1018 30.06 847 25.01 23.1 73.5 26 2.7 36.9
01:10 1018 30.06 847 25.01 23 73.5 26 2.7 36.9
01:15 1018 30.06 847 25.01 22.9 73.1 27 2.9 37.2
01:20 1018 30.06 847 25.01 22.6 72.6 27 2.8 37.1
01:25 1018 30.06 847 25.01 22.6 72.7 27 2.7 36.9
01:30 1018 30.06 847 25.01 22.7 72.8 27 2.7 36.9
01:35 1018 30.06 847 25.01 22.6 72.7 27 2.8 37.1
01:40 1018 30.06 847 25.01 22.5 72.4 27 2.8 37
01:45 1018 30.06 847 25.01 22.6 72.7 26 2.5 36.4
01:50 1018 30.06 847 25.01 22.7 72.8 26 2.6 36.7
01:55 1018 30.06 847 25.01 22.7 72.8 26 2.4 36.4
02:00 1018 30.06 847 25.01 22.8 73 26 2.6 36.7
02:05 1018 30.06 847 25.01 22.7 72.9 26 2.5 36.5
02:10 1018 30.06 847 25.01 22.8 73 26 2.3 36.2
02:15 1018 30.06 847 25.01 22.7 72.8 27 2.8 37
02:20 1018 30.06 847 25.01 22.4 72.4 27 2.5 36.6
02:25 1018 30.06 847 25.01 22.3 72.2 26 2.4 36.2
02:30 1018 30.06 847 25.01 22.2 72 27 2.5 36.5
02:35 1018 30.06 847 25.01 22.2 71.9 27 2.4 36.4
02:40 1018 30.06 847 25.01 21.9 71.5 28 2.8 37
02:45 1018 30.06 847 25.01 21.4 70.6 29 2.8 37
02:50 1018 30.06 847 25.01 21 69.9 29 2.7 36.8
02:55 1018 30.06 847 25.01 20.9 69.5 30 2.7 36.9
03:00 1018 30.06 847 25.01 20.5 68.9 32 3.3 37.9
03:05 1018 30.06 847 25.01 19.4 67 33 2.9 37.2
03:10 1018 30.06 847 25.01 18.9 66.1 33 2.5 36.4
03:15 1018 30.06 847 25.01 18.8 65.8 32 1.8 35.2
03:20 1018 30.06 847 25.01 19 66.2 31 1.5 34.7
03:25 1018 30.06 848 25.04 18.7 65.7 32 1.8 35.2
03:30 1018 30.06 848 25.04 18.6 65.5 32 1.7 35
03:35 1018 30.06 848 25.04 18.5 65.3 32 1.6 35
03:40 1019 30.09 848 25.04 18.4 65 34 2.3 36.1
03:45 1019 30.09 848 25.04 18.2 64.7 35 2.4 36.4
03:50 1019 30.09 848 25.04 17.9 64.1 34 1.8 35.3
03:55 1019 30.09 848 25.04 17.7 63.8 32 1.1 34
04:00 1018 30.06 848 25.04 18.2 64.8 32 1.6 34.9
04:05 1018 30.06 848 25.04 17.8 64.1 33 1.6 34.8
04:10 1019 30.09 848 25.04 16.9 62.4 38 2.5 36.4
04:15 1019 30.09 848 25.04 15.5 59.9 39 1.5 34.8
04:20 1019 30.09 848 25.04 15.1 59.2 38 0.8 33.5
04:25 1019 30.09 848 25.04 15.2 59.3 36 0.3 32.6
04:30 1019 30.09 848 25.04 15.5 59.8 37 1.1 34
04:35 1019 30.09 848 25.04 15.4 59.6 37 0.9 33.6
04:40 1019 30.09 848 25.04 15.3 59.5 37 0.7 33.3
04:45 1019 30.09 848 25.04 15.3 59.5 36 0.2 32.4
04:50 1019 30.09 848 25.04 15.8 60.4 34 0.2 32.3
04:55 1019 30.09 848 25.04 15.5 59.9 37 0.8 33.4
05:00 1019 30.09 848 25.04 15.6 60 35 0.2 32.4
05:05 1019 30.09 848 25.04 15.8 60.5 35 0.4 32.7
05:10 1019 30.09 848 25.04 15.3 59.5 35 -0.2 31.6
05:15 1019 30.09 848 25.04 15.9 60.6 34 0.2 32.3
05:20 1019 30.09 848 25.04 15.6 60 34 0 32
05:25 1019 30.09 848 25.04 15.6 60.1 36 0.8 33.4
05:30 1019 30.09 848 25.04 15.3 59.5 33 -0.6 30.9
05:35 1019 30.09 848 25.04 15.6 60.1 35 0.2 32.4
05:40 1019 30.09 848 25.04 15.1 59.3 37 0.7 33.3
05:45 1019 30.09 848 25.04 14.9 58.7 36 -0 31.9
05:50 1019 30.09 848 25.04 15.3 59.5 38 1.2 34.2
05:55 1019 30.09 849 25.07 15.2 59.3 38 1 33.7
06:00 1019 30.09 848 25.04 15.2 59.4 35 0 32.1
06:05 1019 30.09 849 25.07 15.3 59.5 36 0.4 32.7
06:10 1019 30.09 849 25.07 15.1 59.2 36 0.1 32.1
06:15 1019 30.09 849 25.07 15.1 59.2 36 0.2 32.3
06:20 1020 30.12 849 25.07 15.3 59.5 36 0.6 33.1
06:25 1020 30.12 849 25.07 15.2 59.4 35 0 32.1
06:30 1020 30.12 849 25.07 15.3 59.5 37 0.9 33.6
06:35 1020 30.12 849 25.07 14.9 58.9 37 0.3 32.6
06:40 1020 30.12 849 25.07 15.1 59.2 38 0.9 33.6
06:45 1020 30.12 849 25.07 15.2 59.3 36 0.4 32.8
06:50 1020 30.12 849 25.07 15.4 59.6 36 0.3 32.6
06:55 1020 30.12 849 25.07 15.5 59.9 35 0.3 32.6
07:00 1020 30.12 849 25.07 15.4 59.8 36 0.5 33
07:05 1020 30.12 849 25.07 15.3 59.5 37 0.7 33.2
07:10 1020 30.12 849 25.07 15.4 59.7 37 0.9 33.6
07:15 1020 30.12 849 25.07 15.5 59.8 40 2.1 35.7
07:20 1020 30.12 849 25.07 15.3 59.5 43 2.7 36.9
07:25 1020 30.12 849 25.07 15.1 59.2 42 2.3 36.1
07:30 1020 30.12 849 25.07 15.2 59.4 41 2.1 35.8
07:35 1020 30.12 849 25.07 15.7 60.2 40 2.4 36.3
07:40 1020 30.12 849 25.07 16.3 61.3 39 2.4 36.3
07:45 1020 30.12 849 25.07 16.5 61.8 39 2.7 36.8
07:50 1020 30.12 849 25.07 16.8 62.2 40 3.2 37.8
07:55 1020 30.12 849 25.07 17.2 62.9 38 3 37.3
08:00 1020 30.12 849 25.07 17.4 63.4 44 5.2 41.4
08:05 1020 30.12 849 25.07 18 64.5 43 5.3 41.6
08:10 1020 30.12 849 25.07 18.4 65.2 41 5.2 41.3
08:15 1020 30.12 849 25.07 18.7 65.7 43 5.9 42.6
08:20 1020 30.12 849 25.07 19 66.2 41 5.6 42.1
08:25 1020 30.12 849 25.07 19.2 66.6 41 5.8 42.5
08:30 1020 30.12 849 25.07 19.8 67.7 39 5.7 42.3
08:35 1020 30.12 849 25.07 20.3 68.6 39 6.1 43
08:40 1020 30.12 849 25.07 20.3 68.6 40 6.3 43.3
08:45 1020 30.12 849 25.07 20.7 69.2 42 7.4 45.2
08:50 1020 30.12 849 25.07 21.3 70.4 36 5.8 42.4
08:55 1020 30.12 849 25.07 21.9 71.5 37 6.7 44.1
09:00 1020 30.12 849 25.07 22.3 72.2 36 6.6 43.9
09:05 1020 30.12 849 25.07 23.2 73.7 32 5.8 42.5
09:10 1020 30.12 849 25.07 23.6 74.4 31 5.7 42.3
09:15 1020 30.12 849 25.07 23.8 74.9 30 5.7 42.2
09:20 1020 30.12 849 25.07 24.2 75.6 22 1.7 35
09:25 1020 30.12 849 25.07 25.1 77.1 25 3.7 38.7
09:30 1020 30.12 849 25.07 25.2 77.4 23 3.1 37.7
09:35 1020 30.12 849 25.07 24.6 76.3 25 3.6 38.4
09:40 1020 30.12 849 25.07 24.1 75.3 25 3.3 37.9
09:45 1020 30.12 849 25.07 23.9 75.1 26 3.3 37.9
09:50 1020 30.12 849 25.07 24.2 75.5 25 3.3 37.9
09:55 1020 30.12 849 25.07 24.8 76.6 23 2.6 36.7
10:00 1020 30.12 849 25.07 25.3 77.6 24 3.4 38.1
10:05 1020 30.12 849 25.07 25.7 78.2 22 2.9 37.2
10:10 1020 30.12 849 25.07 25.9 78.6 20 1.7 35.1
10:15 1020 30.12 849 25.07 26.5 79.7 20 2.3 36.1
10:20 1020 30.12 849 25.07 26.9 80.4 17 0.4 32.6
10:25 1020 30.12 849 25.07 26.1 79 18 0.2 32.4
10:30 1020 30.12 849 25.07 26.5 79.7 18 0.2 32.4
10:35 1020 30.12 849 25.07 27.2 80.9 18 1.4 34.6
10:40 1020 30.12 849 25.07 27.5 81.5 18 1.4 34.5
10:45 1020 30.12 849 25.07 27.8 82 19 2.3 36.2
10:50 1020 30.12 849 25.07 27.9 82.2 16 0.5 32.9
10:55 1020 30.12 849 25.07 28.4 83.1 15 -0.3 31.4
11:00 1020 30.12 849 25.07 29.2 84.5 16 0.7 33.3
11:05 1020 30.12 849 25.07 29.2 84.6 14 -0.5 31
11:10 1020 30.12 849 25.07 29.4 84.9 14 -0.6 30.9
11:15 1020 30.12 849 25.07 29.1 84.3 14 -0.5 31
11:20 1020 30.12 849 25.07 29.6 85.4 14 -0.6 31
11:25 1020 30.12 849 25.07 29.5 85.1 14 -0.4 31.4
11:30 1020 30.12 849 25.07 29.3 84.8 12 -2.3 27.9
11:35 1020 30.12 849 25.07 28.9 84.1 12 -3.3 26.1
11:40 1019 30.09 849 25.07 28.3 83 14 -1.3 29.6
11:45 1019 30.09 849 25.07 28.9 84.1 13 -1.8 28.7
11:50 1019 30.09 849 25.07 29.4 85 12 -2.5 27.5
11:55 1019 30.09 849 25.07 29.8 85.6 9 -6.2 20.8
12:00 1019 30.09 848 25.04 30 85.9 10 -4.3 24.3
12:05 1019 30.09 848 25.04 29.9 85.8 11 -3.5 25.7
12:10 1019 30.09 848 25.04 29.9 85.9 10 -4.8 23.4
12:15 1019 30.09 848 25.04 30.5 86.9 10 -4.6 23.7
12:20 1019 30.09 848 25.04 30.6 87.1 9 -5.2 22.6
12:25 1019 30.09 848 25.04 30.7 87.3 8 -7 19.3
12:30 1019 30.09 848 25.04 29.6 85.3 8 -7.3 18.9
12:35 1019 30.09 848 25.04 30.1 86.1 8 -7 19.5
12:40 1019 30.09 848 25.04 30.5 86.8 8 -7 19.4
12:45 1019 30.09 848 25.04 30.1 86.2 9 -6.2 20.9
12:50 1019 30.09 848 25.04 30.9 87.6 9 -5.8 21.5
12:55 1019 30.09 848 25.04 31.8 89.3 8 -5.7 21.8
13:00 1019 30.09 848 25.04 30.6 87.1 9 -5.6 21.9
13:05 1019 30.09 848 25.04 31.3 88.3 9 -5.8 21.6
13:10 1019 30.09 848 25.04 31.8 89.2 9 -5.4 22.3
13:15 1018 30.06 848 25.04 31.7 89 11 -2.6 27.3
13:20 1018 30.06 848 25.04 31.3 88.3 8 -5.9 21.3
13:25 1018 30.06 847 25.01 31.8 89.3 9 -3.9 25
13:30 1018 30.06 847 25.01 32 89.5 8 -5.5 22.2
13:35 1018 30.06 847 25.01 31.1 87.9 9 -5.2 22.7
13:40 1018 30.06 847 25.01 31.7 89 8 -5.6 21.9
13:45 1018 30.06 847 25.01 31.8 89.2 9 -5.4 22.3
13:50 1018 30.06 847 25.01 30.8 87.4 9 -6 21.2
13:55 1018 30.06 847 25.01 30.7 87.2 9 -6.2 20.8
14:00 1018 30.06 847 25.01 30.3 86.5 9 -6.1 21.1
14:05 1018 30.06 847 25.01 30.4 86.7 9 -5.2 22.6
14:10 1018 30.06 847 25.01 31.5 88.7 9 -4.6 23.6
14:15 1018 30.06 847 25.01 31.9 89.5 10 -3.2 26.3
14:20 1018 30.06 847 25.01 31.5 88.8 9 -4.9 23.3
14:25 1017 30.03 847 25.01 31.5 88.7 9 -5.2 22.7
14:30 1018 30.06 847 25.01 32.3 90.2 8 -5.4 22.3
14:35 1017 30.03 847 25.01 31.1 88 9 -4.8 23.3
14:40 1017 30.03 847 25.01 31.3 88.4 9 -4.8 23.4
14:45 1017 30.03 846 24.98 32.1 89.8 9 -3.9 25
14:50 1017 30.03 846 24.98 32.3 90.1 9 -5 23
14:55 1017 30.03 846 24.98 32.5 90.5 9 -4.1 24.6
15:00 1017 30.03 846 24.98 32.8 91 8 -4.8 23.4
15:05 1017 30.03 846 24.98 32.9 91.1 8 -4.6 23.7
15:10 1017 30.03 846 24.98 32.9 91.3 9 -4.2 24.5
15:15 1017 30.03 846 24.98 33.9 93.1 8 -4.5 23.9
15:20 1017 30.03 846 24.98 33.9 93 9 -3.2 26.2
15:25 1017 30.03 846 24.98 34.3 93.7 9 -3.2 26.2
15:30 1017 30.03 846 24.98 33.7 92.7 9 -3.1 26.4
15:35 1017 30.03 846 24.98 33.2 91.8 10 -2.5 27.5
15:40 1017 30.03 846 24.98 32.7 90.9 10 -2.2 28
15:45 1017 30.03 846 24.98 32.3 90.1 10 -3 26.6
15:50 1017 30.03 846 24.98 32.2 90 11 -1.7 29
15:55 1017 30.03 846 24.98 32.1 89.8 11 -2.2 28.1
16:00 1017 30.03 846 24.98 31.8 89.3 11 -2.3 27.9
16:05 1017 30.03 846 24.98 32 89.6 11 -2.1 28.2
16:10 1016 30 846 24.98 32.5 90.5 10 -2.1 28.2
16:15 1016 30 846 24.98 31.8 89.3 10 -2.6 27.2
16:20 1016 30 845 24.95 31.9 89.4 10 -2.6 27.4
16:25 1016 30 845 24.95 32.8 91 10 -1.9 28.5
16:30 1016 30 845 24.95 34.1 93.3 10 -1.4 29.4
16:35 1016 30 845 24.95 34.4 93.9 10 -0.9 30.4
16:40 1016 30 845 24.95 33.8 92.8 10 -1.6 29.1
16:45 1016 30 845 24.95 33.5 92.3 10 -1.5 29.3
16:50 1016 30 845 24.95 32.8 91.1 11 -1.4 29.5
16:55 1016 30 845 24.95 32.7 90.8 11 -1.5 29.3
17:00 1016 30 845 24.95 33 91.5 10 -2.3 27.8
17:05 1016 30 845 24.95 33.5 92.2 10 -1.3 29.7
17:10 1016 30 845 24.95 32.8 91 10 -2.7 27.2
17:15 1016 30 845 24.95 32.6 90.7 10 -2.7 27.2
17:20 1016 30 845 24.95 32.7 90.9 11 -1.6 29.1
17:25 1016 30 845 24.95 33.2 91.8 10 -1.7 29
17:30 1015 29.97 845 24.95 33.1 91.5 10 -2.1 28.3
17:35 1015 29.97 845 24.95 33.1 91.5 10 -2.1 28.2
17:40 1015 29.97 845 24.95 33.4 92 10 -2.3 27.9
17:45 1015 29.97 845 24.95 33.7 92.6 10 -1.2 29.8
17:50 1015 29.97 845 24.95 33.1 91.5 10 -1.8 28.8
17:55 1015 29.97 844 24.92 32.8 91.1 10 -2.8 27
18:00 1015 29.97 844 24.92 33.3 91.9 9 -3.5 25.6
18:05 1015 29.97 844 24.92 33.7 92.6 9 -3.4 25.9
18:10 1015 29.97 844 24.92 33.9 93.1 10 -2.1 28.2
18:15 1015 29.97 844 24.92 33.6 92.4 10 -1.5 29.3
18:20 1015 29.97 844 24.92 33.8 92.8 9 -3.8 25.2
18:25 1015 29.97 844 24.92 33.7 92.6 9 -3.5 25.6
18:30 1015 29.97 844 24.92 33.7 92.6 11 -1.1 30.1
18:35 1015 29.97 844 24.92 33.7 92.7 9 -2.9 26.8
18:40 1015 29.97 844 24.92 34 93.3 9 -3.4 25.9
18:45 1015 29.97 844 24.92 33.6 92.5 9 -2.8 26.9
18:50 1015 29.97 844 24.92 33.2 91.7 9 -2.9 26.8
18:55 1015 29.97 844 24.92 32.9 91.3 9 -3.2 26.2
19:00 1015 29.97 844 24.92 32.7 90.9 10 -2.6 27.3
19:05 1015 29.97 844 24.92 32.4 90.4 10 -3 26.7
19:10 1015 29.97 844 24.92 32.2 90 11 -1.9 28.6
19:15 1015 29.97 844 24.92 31.9 89.5 11 -1.4 29.5
19:20 1015 29.97 844 24.92 31.7 89 12 -0.9 30.3
19:25 1015 29.97 844 24.92 31.3 88.4 12 -0.5 31
19:30 1015 29.97 844 24.92 31.1 88 13 -0.1 31.9
19:35 1015 29.97 844 24.92 30.8 87.5 14 0.8 33.4
19:40 1015 29.97 844 24.92 30.5 86.9 15 1.1 33.9
19:45 1015 29.97 844 24.92 30.3 86.5 15 0.7 33.3
19:50 1015 29.97 844 24.92 30.1 86.1 17 2.6 36.6
19:55 1015 29.97 844 24.92 29.8 85.7 17 2.1 35.8
20:00 1015 29.97 844 24.92 29.6 85.3 18 2.8 37.1
20:05 1015 29.97 844 24.92 29.1 84.3 13 -1.4 29.6
20:10 1015 29.97 844 24.92 28.9 84.1 13 -2.2 28.1
20:15 1015 29.97 844 24.92 28.9 84 17 1.7 35.1
20:20 1015 29.97 845 24.95 28.4 83 15 -0.1 31.8
20:25 1015 29.97 845 24.95 28.5 83.2 13 -1.9 28.6
20:30 1016 30 845 24.95 28.8 83.9 14 -1.2 29.8
20:35 1016 30 845 24.95 28.9 84 14 -1.4 29.4
20:40 1016 30 845 24.95 28.7 83.7 14 -1 30.2
20:45 1016 30 845 24.95 28.5 83.3 15 -0.6 30.8
20:50 1016 30 845 24.95 28.2 82.8 15 -0.7 30.8
20:55 1016 30 845 24.95 27.9 82.3 15 -0.5 31.1
21:00 1016 30 845 24.95 27.7 81.8 16 0.2 32.4
21:05 1016 30 845 24.95 27.3 81.2 17 0.5 32.9
21:10 1016 30 845 24.95 27 80.5 18 1 33.7
21:15 1016 30 845 24.95 26.6 79.9 19 1 33.8
21:20 1016 30 845 24.95 26.2 79.2 19 0.7 33.3
21:25 1016 30 845 24.95 25.9 78.7 19 1 33.7
21:30 1016 30 846 24.98 25.7 78.2 19 0.6 33.2
21:35 1016 30 846 24.98 25.5 77.9 20 1.4 34.5
21:40 1017 30.03 846 24.98 25.3 77.5 20 0.7 33.3
21:45 1017 30.03 846 24.98 24.9 76.9 19 -0.1 31.8
21:50 1017 30.03 846 24.98 24.8 76.6 20 0.7 33.3
21:55 1017 30.03 846 24.98 24 75.2 25 3.2 37.7
22:00 1017 30.03 846 24.98 23 73.5 25 2.2 35.9
22:05 1017 30.03 847 25.01 23 73.4 23 1.1 33.9
22:10 1018 30.06 847 25.01 23 73.5 23 1.2 34.2
22:15 1018 30.06 847 25.01 23.1 73.6 23 1.3 34.3
22:20 1018 30.06 847 25.01 23 73.5 24 1.9 35.4
22:25 1018 30.06 847 25.01 22.7 72.9 24 1.5 34.7
22:30 1018 30.06 847 25.01 22.7 72.9 23 0.8 33.5
22:35 1018 30.06 847 25.01 22.9 73.2 23 0.8 33.4
22:40 1018 30.06 847 25.01 23 73.3 23 1 33.7
22:45 1018 30.06 847 25.01 22.9 73.3 23 0.9 33.7
22:50 1018 30.06 847 25.01 22.9 73.1 23 0.6 33.2
22:55 1018 30.06 847 25.01 22.8 73 23 0.6 33.1
23:00 1018 30.06 847 25.01 22.7 72.9 22 0.4 32.7
23:05 1018 30.06 847 25.01 22.6 72.7 22 0.3 32.6
23:10 1018 30.06 848 25.04 22.5 72.5 22 -0 31.9
23:15 1018 30.06 848 25.04 22.5 72.5 22 -0 32
23:20 1018 30.06 848 25.04 22.5 72.5 23 0.4 32.8
23:25 1018 30.06 848 25.04 22.4 72.3 22 0.1 32.2
23:30 1019 30.09 848 25.04 22.2 72 23 0.4 32.7
23:35 1019 30.09 848 25.04 22.1 71.7 24 0.6 33.1
23:40 1019 30.09 848 25.04 22 71.6 23 -0 32
23:45 1019 30.09 848 25.04 21.9 71.5 23 -0.1 31.9
23:50 1019 30.09 848 25.04 21.9 71.4 23 -0.1 31.9
23:55 1019 30.09 848 25.04 21.9 71.4 23 0.1 32.2
24:00 1019 30.09 848 25.04 21.9 71.4 23 -0.1 31.8